Terminal Aerodrome Forecast
Issued by NWS Grand Junction, CO

Home | Current Version | Previous Version | Text Only | Print | Product List | Glossary On
Versions: 1 2 3 4 5 6 7 8 9 10 11 12 13 14 15 16 17 18 19 20 21 22 23 24 25 26 27 28 29 30 31 32 33 34 35 36 37 38 39 40 41 42 43
000
FTUS45 KGJT 061729
TAFGJT
TAF
KGJT 061729Z 0618/0718 12008KT P6SM SKC
     FM062000 30004KT P6SM FEW250
     FM070200 05005KT P6SM SCT250
     FM070600 11007KT P6SM SKC=

USA.gov is the U.S. government's official web portal to all federal, state and local government web resources and services.